Погода в Широком

Украина / Одесская область     45°57′59″N   30°05′25″E
темп.,
°C
ветер,
м/с
пор.,
м/с
влажн.,
%
обл.,
%
осадки,
мм/ч
давл.,
гПа
погр.,
м
5 марта, пт
пт523:00+8юз597550 0.0 1013212
02:00+6юз478138 0.0 1012134
05:00+5з33759 0.0 101239
08:00+7с46696 0.0 1012209
11:00+12всв335612 0.0 1012441
14:00+14ююз344545 0.0 1011935
17:00+11ююв4559100 0.0 1011160
20:00+9юз345967 0.0 101255
6 марта, сб
сб623:00+9зсз6126059 0.0 1013361
02:00+6ссз6127870 0.0 1016558
05:00+4с8107593 0.0 10181006
08:00+2с7116596 0.0 1022853
11:00+4с7941100 0.0 10241244
14:00+5ссз7838100 0.0 10251716
17:00+5с673362 0.0 10261975
20:00+2с334730 0.0 102876
7 марта, вс
вс723:00+1з11490 0.0 103022
02:000з35530 0.0 103099
05:00−1сз35660 0.0 1029118
08:00+1зсз24520 0.0 1029277
11:00+5зюз67390 0.0 10271433
14:00+7зюз68380 0.0 10251684
17:00+7зюз68390 0.0 10221460
20:00+4ююз611530 0.0 1021342
8 марта, пн
пн823:00+2юз510670 0.0 1020273
02:00+1юз4107229 0.0 1019231
05:000юз488435 0.0 1018167
08:00+2зюз347618 0.0 1018185
11:00+7ююз11482 0.0 1017665
14:00+8ю324244 0.0 10161101
17:00+6ююв445482 0.0 1014320
20:00+4ююв237172 0.0 101527
9 марта, вт
вт923:00+3юз227762 0.0 101526
02:00+3сз118262 0.0 101522
05:00+1с59730 0.0 1016213
08:00+2с6107029 0.0 1018479
11:00+5с784634 0.0 1020832
14:00+6с674018 0.0 10191322
17:00+5ссв56360 0.0 10191479
20:00+2ссв49500 0.0 1022375